Location: Newark
(48.5156°N, 1.8989°W)
Time: 05:01:38
(UTC+00:00)

Vanguard 1 Rocket - Pass Details

Date: 18 November 2019
Orbit: 650 x 4226 km, 34.3° (Epoch: 06 December)

Event Time Altitude Azimuth Distance (km) Brightness Sun altitude
Exits shadow 05:25:06 11° 215° (SW) 2,118 9.0 -18.7°
Maximum altitude 05:28:14 18° 172° (S) 1,856 9.2 -18.2°
Drops below altitude 10° 05:32:17 10° 130° (SE) 2,762 10.8 -17.5°
Sets 05:36:30 0° 113° (ESE) 4,234 12.4 -16.9°
